Time,TemperatureF,DewpointF,PressureIn,WindDirection,WindDirectionDegrees,WindSpeedMPH,WindSpeedGustMPH,Humidity,HourlyPrecipIn,Conditions,Clouds,dailyrainin,SoftwareType,DateUTC
2013-09-06 00:00:00,73.4,65.4,29.92,ESE,103,0.0,2.0,76,0.00,,,0.00,WeatherDisplay:10.37,2013-09-05 22:00:00,
2013-09-06 00:05:00,73.3,65.3,29.92,ESE,103,0.0,0.0,76,0.00,,,0.00,WeatherDisplay:10.37,2013-09-05 22:05:00,
2013-09-06 00:10:00,73.1,64.7,29.92,ESE,103,0.0,0.0,75,0.00,,,0.00,WeatherDisplay:10.37,2013-09-05 22:10:00,
2013-09-06 00:15:00,73.0,64.6,29.92,ESE,103,0.0,0.0,75,0.00,,,0.00,WeatherDisplay:10.37,2013-09-05 22:15:00,
2013-09-06 00:20:00,72.8,64.4,29.92,ESE,102,0.0,0.0,75,0.00,,,0.00,WeatherDisplay:10.37,2013-09-05 22:20:00,
2013-09-06 00:25:00,72.6,64.2,29.92,East,101,0.0,0.0,75,0.00,,,0.00,WeatherDisplay:10.37,2013-09-05 22:25:00,
2013-09-06 00:30:00,72.3,63.9,29.92,East,99,0.0,5.0,75,0.00,,,0.00,WeatherDisplay:10.37,2013-09-05 22:30:00,
2013-09-06 00:35:00,72.1,63.8,29.92,East,96,2.0,5.0,75,0.00,,,0.00,WeatherDisplay:10.37,2013-09-05 22:35:00,
2013-09-06 00:40:00,72.0,64.0,29.92,East,96,0.0,5.0,76,0.00,,,0.00,WeatherDisplay:10.37,2013-09-05 22:40:00,
2013-09-06 00:45:00,71.9,63.9,29.92,East,96,0.0,0.0,76,0.00,,,0.00,WeatherDisplay:10.37,2013-09-05 22:45:00,
2013-09-06 00:50:00,71.8,63.8,29.92,East,96,0.0,0.0,76,0.00,,,0.00,WeatherDisplay:10.37,2013-09-05 22:50:00,
2013-09-06 00:55:00,71.7,63.7,29.92,East,96,0.0,0.0,76,0.00,,,0.00,Wunderground v.1.15,2013-09-05 22:55:00,
2013-09-06 01:05:00,71.6,63.6,29.92,East,96,0.0,2.0,76,0.00,,,0.00,WeatherDisplay:10.37,2013-09-05 23:05:00,
2013-09-06 01:10:00,71.6,63.6,29.92,East,96,0.0,0.0,76,0.00,,,0.00,WeatherDisplay:10.37,2013-09-05 23:10:00,
2013-09-06 01:15:00,71.6,63.6,29.92,East,96,0.0,0.0,76,0.00,,,0.00,WeatherDisplay:10.37,2013-09-05 23:15:00,
2013-09-06 01:20:00,71.4,63.4,29.92,East,96,0.0,0.0,76,0.00,,,0.00,WeatherDisplay:10.37,2013-09-05 23:20:00,
2013-09-06 01:25:00,71.3,63.3,29.92,East,96,0.0,0.0,76,0.00,,,0.00,WeatherDisplay:10.37,2013-09-05 23:25:00,
2013-09-06 01:30:00,71.2,63.2,29.92,East,96,0.0,0.0,76,0.00,,,0.00,WeatherDisplay:10.37,2013-09-05 23:30:00,
2013-09-06 01:35:00,71.1,63.5,29.92,East,96,0.0,0.0,77,0.00,,,0.00,WeatherDisplay:10.37,2013-09-05 23:35:00,
2013-09-06 01:40:00,71.0,63.4,29.92,East,96,0.0,0.0,77,0.00,,,0.00,WeatherDisplay:10.37,2013-09-05 23:40:00,
2013-09-06 01:45:00,70.9,63.3,29.92,East,96,2.0,4.0,77,0.00,,,0.00,WeatherDisplay:10.37,2013-09-05 23:45:00,
2013-09-06 01:50:00,70.8,63.2,29.92,East,95,0.0,4.0,77,0.00,,,0.00,WeatherDisplay:10.37,2013-09-05 23:50:00,
2013-09-06 01:55:00,70.8,63.2,29.92,East,95,0.0,0.0,77,0.00,,,0.00,WeatherDisplay:10.37,2013-09-05 23:55:00,
2013-09-06 02:00:00,70.7,63.5,29.92,East,95,0.0,0.0,78,0.00,,,0.00,WeatherDisplay:10.37,2013-09-06 00:00:00,
2013-09-06 02:05:00,70.8,63.6,29.92,East,95,0.0,0.0,78,0.00,,,0.00,WeatherDisplay:10.37,2013-09-06 00:05:00,
2013-09-06 02:10:00,70.8,63.6,29.92,East,95,0.0,0.0,78,0.00,,,0.00,WeatherDisplay:10.37,2013-09-06 00:10:00,
2013-09-06 02:15:00,70.7,63.5,29.92,East,95,0.0,0.0,78,0.00,,,0.00,WeatherDisplay:10.37,2013-09-06 00:15:00,
2013-09-06 02:21:00,70.7,63.5,29.92,East,95,0.0,0.0,78,0.00,,,0.00,Wunderground v.1.15,2013-09-06 00:21:00,
2013-09-06 02:30:00,70.5,63.3,29.92,East,95,0.0,2.0,78,0.00,,,0.00,WeatherDisplay:10.37,2013-09-06 00:30:00,
2013-09-06 02:35:00,70.4,63.2,29.92,East,95,0.0,0.0,78,0.00,,,0.00,WeatherDisplay:10.37,2013-09-06 00:35:00,
2013-09-06 02:40:00,70.3,63.5,29.92,East,95,0.0,0.0,79,0.00,,,0.00,WeatherDisplay:10.37,2013-09-06 00:40:00,
2013-09-06 02:45:00,70.2,63.4,29.91,East,95,0.0,0.0,79,0.00,,,0.00,WeatherDisplay:10.37,2013-09-06 00:45:00,
2013-09-06 02:50:00,70.1,63.3,29.91,East,95,0.0,0.0,79,0.00,,,0.00,WeatherDisplay:10.37,2013-09-06 00:50:00,
2013-09-06 02:55:00,70.1,63.3,29.91,East,95,0.0,0.0,79,0.00,,,0.00,WeatherDisplay:10.37,2013-09-06 00:55:00,
2013-09-06 03:00:00,70.1,63.3,29.91,East,95,0.0,4.0,79,0.00,,,0.00,WeatherDisplay:10.37,2013-09-06 01:00:00,
2013-09-06 03:05:00,70.0,63.2,29.91,East,95,0.0,5.0,79,0.00,,,0.00,WeatherDisplay:10.37,2013-09-06 01:05:00,
2013-09-06 03:10:00,69.9,63.4,29.91,East,95,2.0,5.0,80,0.00,,,0.00,WeatherDisplay:10.37,2013-09-06 01:10:00,
2013-09-06 03:15:00,69.8,63.3,29.91,East,94,2.0,5.0,80,0.00,,,0.00,WeatherDisplay:10.37,2013-09-06 01:15:00,
2013-09-06 03:20:00,69.7,63.6,29.91,East,94,2.0,5.0,81,0.00,,,0.00,WeatherDisplay:10.37,2013-09-06 01:20:00,
2013-09-06 03:25:00,69.6,63.5,29.91,East,94,0.0,4.0,81,0.00,,,0.00,WeatherDisplay:10.37,2013-09-06 01:25:00,
2013-09-06 03:30:00,69.5,63.4,29.91,East,94,0.0,0.0,81,0.00,,,0.00,WeatherDisplay:10.37,2013-09-06 01:30:00,
2013-09-06 03:35:00,69.4,63.3,29.91,East,94,0.0,0.0,81,0.00,,,0.00,WeatherDisplay:10.37,2013-09-06 01:35:00,
2013-09-06 03:40:00,69.3,63.6,29.91,East,94,0.0,0.0,82,0.00,,,0.00,WeatherDisplay:10.37,2013-09-06 01:40:00,
2013-09-06 03:45:00,69.2,63.5,29.90,East,94,0.0,0.0,82,0.00,,,0.00,WeatherDisplay:10.37,2013-09-06 01:45:00,
2013-09-06 03:50:00,69.2,63.4,29.91,East,94,0.0,0.0,82,0.00,,,0.00,WeatherDisplay:10.37,2013-09-06 01:50:00,
2013-09-06 03:55:00,69.1,63.4,29.91,East,94,0.0,0.0,82,0.00,,,0.00,WeatherDisplay:10.37,2013-09-06 01:55:00,
2013-09-06 04:00:00,69.0,63.6,29.90,East,94,0.0,0.0,83,0.00,,,0.00,WeatherDisplay:10.37,2013-09-06 02:00:00,
2013-09-06 04:06:00,69.0,63.6,29.90,East,94,0.0,0.0,83,0.00,,,0.00,Wunderground v.1.15,2013-09-06 02:06:00,
2013-09-06 04:11:00,69.0,63.6,29.90,East,94,0.0,0.0,83,0.00,,,0.00,Wunderground v.1.15,2013-09-06 02:11:00,
2013-09-06 04:16:00,69.0,63.6,29.90,East,94,0.0,0.0,83,0.00,,,0.00,Wunderground v.1.15,2013-09-06 02:16:00,
2013-09-06 04:25:00,69.0,63.6,29.90,East,94,0.0,0.0,83,0.00,,,0.00,WeatherDisplay:10.37,2013-09-06 02:25:00,
2013-09-06 04:30:00,68.9,63.5,29.90,East,94,0.0,4.0,83,0.00,,,0.00,WeatherDisplay:10.37,2013-09-06 02:30:00,
2013-09-06 04:35:00,68.8,63.4,29.90,East,94,2.0,5.0,83,0.00,,,0.00,WeatherDisplay:10.37,2013-09-06 02:35:00,
2013-09-06 04:40:00,68.7,63.3,29.89,East,94,3.0,5.0,83,0.00,,,0.00,WeatherDisplay:10.37,2013-09-06 02:40:00,
2013-09-06 04:45:00,68.6,63.2,29.89,East,93,0.0,5.0,83,0.00,,,0.00,WeatherDisplay:10.37,2013-09-06 02:45:00,
2013-09-06 04:50:00,68.6,63.2,29.89,East,93,1.0,5.0,83,0.00,,,0.00,WeatherDisplay:10.37,2013-09-06 02:50:00,
2013-09-06 04:55:00,68.5,63.1,29.89,East,93,2.0,5.0,83,0.00,,,0.00,WeatherDisplay:10.37,2013-09-06 02:55:00,
2013-09-06 05:00:00,68.5,63.5,29.89,East,92,0.0,3.0,84,0.00,,,0.00,WeatherDisplay:10.37,2013-09-06 03:00:00,
2013-09-06 05:05:00,68.5,63.5,29.89,East,92,0.0,4.0,84,0.00,,,0.00,WeatherDisplay:10.37,2013-09-06 03:05:00,
2013-09-06 05:10:00,68.5,63.5,29.89,East,92,0.0,5.0,84,0.00,,,0.00,WeatherDisplay:10.37,2013-09-06 03:10:00,
2013-09-06 05:15:00,68.5,63.5,29.89,East,92,0.0,5.0,84,0.00,,,0.00,WeatherDisplay:10.37,2013-09-06 03:15:00,
2013-09-06 05:20:00,68.5,63.5,29.89,East,92,2.0,4.0,84,0.00,,,0.00,WeatherDisplay:10.37,2013-09-06 03:20:00,
2013-09-06 05:25:00,68.5,63.5,29.89,East,92,2.0,5.0,84,0.00,,,0.00,WeatherDisplay:10.37,2013-09-06 03:25:00,
2013-09-06 05:30:00,68.5,63.5,29.89,East,92,0.0,5.0,84,0.00,,,0.00,WeatherDisplay:10.37,2013-09-06 03:30:00,
2013-09-06 05:35:00,68.4,63.4,29.89,East,92,1.0,4.0,84,0.00,,,0.00,WeatherDisplay:10.37,2013-09-06 03:35:00,
2013-09-06 05:40:00,68.4,63.4,29.89,East,92,0.0,4.0,84,0.00,,,0.00,WeatherDisplay:10.37,2013-09-06 03:40:00,
2013-09-06 05:45:00,68.4,63.4,29.89,East,92,0.0,0.0,84,0.00,,,0.00,WeatherDisplay:10.37,2013-09-06 03:45:00,
2013-09-06 05:50:00,68.3,63.3,29.90,East,92,1.0,4.0,84,0.00,,,0.00,WeatherDisplay:10.37,2013-09-06 03:50:00,
2013-09-06 05:55:00,68.3,63.3,29.89,East,92,2.0,5.0,84,0.00,,,0.00,WeatherDisplay:10.37,2013-09-06 03:55:00,
2013-09-06 06:00:00,68.3,63.3,29.89,East,91,2.0,6.0,84,0.00,,,0.00,WeatherDisplay:10.37,2013-09-06 04:00:00,
2013-09-06 06:05:00,68.3,63.2,29.89,East,91,1.0,5.0,84,0.00,,,0.00,WeatherDisplay:10.37,2013-09-06 04:05:00,
2013-09-06 06:10:00,68.2,63.2,29.90,East,91,1.0,5.0,84,0.00,,,0.00,WeatherDisplay:10.37,2013-09-06 04:10:00,
2013-09-06 06:15:00,68.2,63.2,29.89,East,91,1.0,5.0,84,0.00,,,0.00,WeatherDisplay:10.37,2013-09-06 04:15:00,
2013-09-06 06:16:00,68.2,63.2,29.90,East,90,2.0,4.0,84,0.00,,,0.00,Wunderground v.1.15,2013-09-06 04:16:00,
2013-09-06 06:20:00,68.2,63.2,29.90,East,90,3.0,5.0,84,0.00,,,0.00,WeatherDisplay:10.37,2013-09-06 04:20:00,
2013-09-06 06:25:00,68.1,63.1,29.90,East,90,2.0,5.0,84,0.00,,,0.00,WeatherDisplay:10.37,2013-09-06 04:25:00,
2013-09-06 06:35:00,68.0,63.0,29.90,East,90,0.0,5.0,84,0.00,,,0.00,WeatherDisplay:10.37,2013-09-06 04:35:00,
2013-09-06 06:40:00,67.9,63.3,29.90,East,90,3.0,6.0,85,0.00,,,0.00,WeatherDisplay:10.37,2013-09-06 04:40:00,
2013-09-06 06:45:00,67.9,63.2,29.90,East,90,2.0,5.0,85,0.00,,,0.00,WeatherDisplay:10.37,2013-09-06 04:45:00,
2013-09-06 06:50:00,67.9,63.2,29.90,East,90,2.0,5.0,85,0.00,,,0.00,WeatherDisplay:10.37,2013-09-06 04:50:00,
2013-09-06 06:51:00,67.9,63.2,29.90,East,89,2.0,3.0,85,0.00,,,0.00,Wunderground v.1.15,2013-09-06 04:51:00,
2013-09-06 07:00:00,67.8,63.2,29.90,East,89,1.0,4.0,85,0.00,CLR,,0.00,WeatherDisplay:10.37,2013-09-06 05:00:00,
2013-09-06 07:06:00,67.8,63.5,29.90,East,89,2.0,4.0,86,0.00,,,0.00,Wunderground v.1.15,2013-09-06 05:06:00,
2013-09-06 07:15:00,67.7,63.4,29.90,East,89,2.0,4.0,86,0.00,CLR,,0.00,WeatherDisplay:10.37,2013-09-06 05:15:00,
2013-09-06 07:20:00,67.6,63.3,29.90,East,89,2.0,4.0,86,0.00,CLR,,0.00,WeatherDisplay:10.37,2013-09-06 05:20:00,
2013-09-06 07:25:00,67.6,63.3,29.90,East,89,0.0,3.0,86,0.00,CLR,,0.00,WeatherDisplay:10.37,2013-09-06 05:25:00,
2013-09-06 07:30:00,67.6,63.3,29.90,East,89,2.0,4.0,86,0.00,CLR,,0.00,WeatherDisplay:10.37,2013-09-06 05:30:00,
2013-09-06 07:35:00,67.6,63.3,29.90,East,89,0.0,3.0,86,0.00,CLR,,0.00,WeatherDisplay:10.37,2013-09-06 05:35:00,
2013-09-06 07:40:00,67.6,63.3,29.91,East,89,1.0,4.0,86,0.00,CLR,,0.00,WeatherDisplay:10.37,2013-09-06 05:40:00,
2013-09-06 07:45:00,67.6,63.3,29.91,East,89,2.0,4.0,86,0.00,CLR,,0.00,WeatherDisplay:10.37,2013-09-06 05:45:00,
2013-09-06 07:50:00,67.7,63.4,29.91,East,89,2.0,5.0,86,0.00,CLR,,0.00,WeatherDisplay:10.37,2013-09-06 05:50:00,
2013-09-06 07:55:00,67.8,63.5,29.91,East,88,1.0,5.0,86,0.00,CLR,,0.00,WeatherDisplay:10.37,2013-09-06 05:55:00,
2013-09-06 08:00:00,67.9,63.6,29.91,East,87,2.0,4.0,86,0.00,CLR,,0.00,WeatherDisplay:10.37,2013-09-06 06:00:00,
2013-09-06 08:05:00,68.1,63.8,29.91,East,84,1.0,5.0,86,0.00,CLR,,0.00,WeatherDisplay:10.37,2013-09-06 06:05:00,
2013-09-06 08:10:00,68.3,63.9,29.91,East,82,2.0,4.0,86,0.00,CLR,,0.00,WeatherDisplay:10.37,2013-09-06 06:10:00,
2013-09-06 08:15:00,68.4,64.1,29.91,East,82,0.0,3.0,86,0.00,CLR,,0.00,WeatherDisplay:10.37,2013-09-06 06:15:00,
2013-09-06 08:20:00,68.6,64.2,29.91,East,82,0.0,0.0,86,0.00,CLR,,0.00,WeatherDisplay:10.37,2013-09-06 06:20:00,
2013-09-06 08:30:00,68.9,64.2,29.92,East,81,0.0,0.0,85,0.00,CLR,,0.00,WeatherDisplay:10.37,2013-09-06 06:30:00,
2013-09-06 08:40:00,69.4,64.6,29.92,East,81,0.0,0.0,85,0.00,CLR,,0.00,WeatherDisplay:10.37,2013-09-06 06:40:00,
2013-09-06 08:45:00,69.6,64.5,29.92,East,81,0.0,0.0,84,0.00,CLR,,0.00,WeatherDisplay:10.37,2013-09-06 06:45:00,
2013-09-06 08:50:00,69.9,64.9,29.92,East,81,0.0,0.0,84,0.00,CLR,,0.00,WeatherDisplay:10.37,2013-09-06 06:50:00,
2013-09-06 09:00:00,70.6,65.2,29.92,East,81,0.0,0.0,83,0.00,CLR,,0.00,WeatherDisplay:10.37,2013-09-06 07:00:00,
2013-09-06 09:05:00,71.0,65.5,29.92,East,81,0.0,0.0,83,0.00,CLR,,0.00,WeatherDisplay:10.37,2013-09-06 07:05:00,
2013-09-06 09:10:00,71.5,66.0,29.92,East,81,0.0,0.0,83,0.00,CLR,,0.00,WeatherDisplay:10.37,2013-09-06 07:10:00,
2013-09-06 09:15:00,71.9,66.5,29.92,East,81,0.0,0.0,83,0.00,CLR,,0.00,WeatherDisplay:10.37,2013-09-06 07:15:00,
2013-09-06 09:20:00,72.4,66.6,29.92,East,81,0.0,0.0,82,0.00,CLR,,0.00,WeatherDisplay:10.37,2013-09-06 07:20:00,
2013-09-06 09:25:00,73.0,67.2,29.92,East,81,0.0,0.0,82,0.00,CLR,,0.00,WeatherDisplay:10.37,2013-09-06 07:25:00,
2013-09-06 09:31:00,73.6,67.4,29.92,East,81,0.0,0.0,81,0.00,,,0.00,Wunderground v.1.15,2013-09-06 07:31:00,
2013-09-06 09:35:00,74.3,68.1,29.92,East,81,0.0,0.0,81,0.00,,,0.00,Wunderground v.1.15,2013-09-06 07:35:00,
2013-09-06 09:45:00,75.5,68.5,29.92,East,81,0.0,0.0,79,0.00,CLR,,0.00,WeatherDisplay:10.37,2013-09-06 07:45:00,
2013-09-06 09:55:00,76.8,69.1,29.92,East,81,0.0,0.0,77,0.00,CLR,,0.00,WeatherDisplay:10.37,2013-09-06 07:55:00,
2013-09-06 10:00:00,77.0,68.5,29.92,East,81,0.0,2.0,75,0.00,CLR,,0.00,WeatherDisplay:10.37,2013-09-06 08:00:00,
2013-09-06 10:05:00,77.3,68.8,29.92,East,81,0.0,1.0,75,0.00,CLR,,0.00,WeatherDisplay:10.37,2013-09-06 08:05:00,
2013-09-06 10:11:00,76.6,68.1,29.92,East,83,0.0,1.0,75,0.00,,,0.00,Wunderground v.1.15,2013-09-06 08:11:00,
2013-09-06 10:16:00,76.5,68.4,29.93,East,83,0.0,0.0,76,0.00,,,0.00,Wunderground v.1.15,2013-09-06 08:16:00,
2013-09-06 10:25:00,76.8,69.1,29.93,East,83,0.0,2.0,77,0.00,CLR,,0.00,WeatherDisplay:10.37,2013-09-06 08:25:00,
2013-09-06 10:30:00,77.1,68.9,29.93,East,83,0.0,1.0,76,0.00,CLR,,0.00,WeatherDisplay:10.37,2013-09-06 08:30:00,
2013-09-06 10:35:00,77.1,68.9,29.93,East,83,0.0,2.0,76,0.00,CLR,,0.00,WeatherDisplay:10.37,2013-09-06 08:35:00,
2013-09-06 10:40:00,76.9,68.8,29.93,East,83,0.0,1.0,76,0.00,CLR,,0.00,WeatherDisplay:10.37,2013-09-06 08:40:00,
2013-09-06 10:45:00,77.1,69.3,29.93,East,84,0.0,3.0,77,0.00,CLR,,0.00,WeatherDisplay:10.37,2013-09-06 08:45:00,
2013-09-06 10:51:00,77.2,69.0,29.92,East,84,0.0,0.0,76,0.00,,,0.00,Wunderground v.1.15,2013-09-06 08:51:00,
2013-09-06 11:00:00,76.9,68.8,29.93,East,85,0.0,3.0,76,0.00,CLR,,0.00,WeatherDisplay:10.37,2013-09-06 09:00:00,
2013-09-06 11:06:00,77.3,69.5,29.93,East,98,0.0,4.0,77,0.00,,,0.00,Wunderground v.1.15,2013-09-06 09:06:00,
2013-09-06 11:11:00,77.6,69.8,29.93,East,101,0.0,4.0,77,0.00,,,0.00,Wunderground v.1.15,2013-09-06 09:11:00,
2013-09-06 11:20:00,78.2,70.0,29.93,ESE,110,1.0,5.0,76,0.00,CLR,,0.00,WeatherDisplay:10.37,2013-09-06 09:20:00,
2013-09-06 11:26:00,78.7,70.1,29.93,ESE,119,1.0,2.0,75,0.00,,,0.00,Wunderground v.1.15,2013-09-06 09:26:00,
2013-09-06 11:35:00,79.0,70.0,29.93,SE,139,2.0,8.0,74,0.00,CLR,,0.00,WeatherDisplay:10.37,2013-09-06 09:35:00,
2013-09-06 11:41:00,79.0,70.0,29.93,SSE,155,2.0,2.0,74,0.00,,,0.00,Wunderground v.1.15,2013-09-06 09:41:00,
2013-09-06 11:46:00,79.1,70.1,29.93,SSE,157,2.0,2.0,74,0.00,,,0.00,Wunderground v.1.15,2013-09-06 09:46:00,
2013-09-06 11:55:00,79.3,69.1,29.93,South,173,5.0,7.0,71,0.00,CLR,,0.00,WeatherDisplay:10.37,2013-09-06 09:55:00,
2013-09-06 12:00:00,79.2,69.4,29.93,South,171,1.0,8.0,72,0.00,CLR,,0.00,WeatherDisplay:10.37,2013-09-06 10:00:00,
2013-09-06 12:05:00,79.5,69.6,29.93,South,169,1.0,7.0,72,0.00,CLR,,0.00,WeatherDisplay:10.37,2013-09-06 10:05:00,
2013-09-06 12:10:00,79.6,69.8,29.93,SSE,165,1.0,8.0,72,0.00,CLR,,0.00,WeatherDisplay:10.37,2013-09-06 10:10:00,
2013-09-06 12:15:00,79.7,69.5,29.93,SSE,162,3.0,8.0,71,0.00,CLR,,0.00,WeatherDisplay:10.37,2013-09-06 10:15:00,
2013-09-06 12:20:00,79.6,69.4,29.93,SSE,163,2.0,8.0,71,0.00,CLR,,0.00,WeatherDisplay:10.37,2013-09-06 10:20:00,
2013-09-06 12:25:00,79.6,69.4,29.93,SSE,165,5.0,10.0,71,0.00,CLR,,0.00,WeatherDisplay:10.37,2013-09-06 10:25:00,
2013-09-06 12:30:00,79.6,69.8,29.93,SSE,163,5.0,10.0,72,0.00,CLR,,0.00,WeatherDisplay:10.37,2013-09-06 10:30:00,
2013-09-06 12:35:00,79.6,69.8,29.93,SSE,160,2.0,9.0,72,0.00,CLR,,0.00,WeatherDisplay:10.37,2013-09-06 10:35:00,
2013-09-06 12:40:00,79.6,69.3,29.93,South,169,2.0,8.0,71,0.00,CLR,,0.00,WeatherDisplay:10.37,2013-09-06 10:40:00,
2013-09-06 12:46:00,79.5,69.3,29.93,SSW,213,3.0,5.0,71,0.00,,,0.00,Wunderground v.1.15,2013-09-06 10:46:00,
2013-09-06 12:55:00,79.5,69.2,29.93,South,181,3.0,8.0,71,0.00,CLR,,0.00,WeatherDisplay:10.37,2013-09-06 10:55:00,
2013-09-06 13:00:00,79.7,69.9,29.93,South,174,1.0,7.0,72,0.00,CLR,,0.00,WeatherDisplay:10.37,2013-09-06 11:00:00,
2013-09-06 13:06:00,79.8,70.0,29.93,SSE,160,3.0,6.0,72,0.00,,,0.00,Wunderground v.1.15,2013-09-06 11:06:00,
2013-09-06 13:11:00,79.6,69.8,29.93,South,169,4.0,5.0,72,0.00,,,0.00,Wunderground v.1.15,2013-09-06 11:11:00,
2013-09-06 13:16:00,79.5,69.7,29.93,SSW,202,4.0,6.0,72,0.00,,,0.00,Wunderground v.1.15,2013-09-06 11:16:00,
2013-09-06 13:25:00,79.2,69.4,29.93,South,187,3.0,9.0,72,0.00,CLR,,0.00,WeatherDisplay:10.37,2013-09-06 11:25:00,
2013-09-06 13:30:00,79.2,69.4,29.93,SSW,196,3.0,10.0,72,0.00,CLR,,0.00,WeatherDisplay:10.37,2013-09-06 11:30:00,
2013-09-06 13:35:00,79.2,69.4,29.93,SSE,153,4.0,6.0,72,0.00,,,0.00,Wunderground v.1.15,2013-09-06 11:35:00,
2013-09-06 13:41:00,79.0,69.6,29.93,SW,226,5.0,8.0,73,0.00,,,0.00,Wunderground v.1.15,2013-09-06 11:41:00,
2013-09-06 13:50:00,79.4,70.0,29.93,South,186,6.0,10.0,73,0.00,CLR,,0.00,WeatherDisplay:10.37,2013-09-06 11:50:00,
2013-09-06 13:55:00,79.5,70.1,29.93,South,180,5.0,9.0,73,0.00,CLR,,0.00,WeatherDisplay:10.37,2013-09-06 11:55:00,
2013-09-06 14:00:00,79.6,70.2,29.93,South,184,2.0,12.0,73,0.00,CLR,,0.00,WeatherDisplay:10.37,2013-09-06 12:00:00,
2013-09-06 14:05:00,79.6,69.8,29.93,SSW,199,6.0,12.0,72,0.00,CLR,,0.00,WeatherDisplay:10.37,2013-09-06 12:05:00,
2013-09-06 14:15:00,79.3,69.5,29.93,SSW,195,5.0,12.0,72,0.00,CLR,,0.00,WeatherDisplay:10.37,2013-09-06 12:15:00,
2013-09-06 14:20:00,79.4,70.0,29.93,SSW,196,5.0,12.0,73,0.00,CLR,,0.00,WeatherDisplay:10.37,2013-09-06 12:20:00,
2013-09-06 14:25:00,79.7,70.3,29.93,SSW,198,5.0,13.0,73,0.00,CLR,,0.00,WeatherDisplay:10.37,2013-09-06 12:25:00,
2013-09-06 14:30:00,79.5,69.7,29.93,SSW,192,7.0,12.0,72,0.00,CLR,,0.00,WeatherDisplay:10.37,2013-09-06 12:30:00,
2013-09-06 14:36:00,79.6,69.8,29.93,SW,214,5.0,7.0,72,0.00,,,0.00,Wunderground v.1.15,2013-09-06 12:36:00,
2013-09-06 14:45:00,80.0,69.7,29.92,South,184,3.0,8.0,71,0.00,CLR,,0.00,WeatherDisplay:10.37,2013-09-06 12:45:00,
2013-09-06 14:50:00,80.0,69.7,29.92,South,186,1.0,7.0,71,0.00,CLR,,0.00,WeatherDisplay:10.37,2013-09-06 12:50:00,
2013-09-06 14:55:00,80.1,69.4,29.92,South,176,2.0,8.0,70,0.00,CLR,,0.00,WeatherDisplay:10.37,2013-09-06 12:55:00,
2013-09-06 15:00:00,80.4,69.7,29.92,South,181,3.0,8.0,70,0.00,CLR,,0.00,WeatherDisplay:10.37,2013-09-06 13:00:00,
2013-09-06 15:05:00,80.4,69.7,29.92,South,182,3.0,3.0,70,0.00,,,0.00,Wunderground v.1.15,2013-09-06 13:05:00,
2013-09-06 15:11:00,80.6,69.5,29.92,SSE,164,3.0,8.0,69,0.00,,,0.00,Wunderground v.1.15,2013-09-06 13:11:00,
2013-09-06 15:16:00,80.6,69.9,29.92,SW,217,3.0,5.0,70,0.00,,,0.00,Wunderground v.1.15,2013-09-06 13:16:00,
2013-09-06 15:25:00,80.5,70.2,29.92,South,189,3.0,9.0,71,0.00,CLR,,0.00,WeatherDisplay:10.37,2013-09-06 13:25:00,
2013-09-06 15:30:00,80.3,69.6,29.91,SSW,198,6.0,12.0,70,0.00,CLR,,0.00,WeatherDisplay:10.37,2013-09-06 13:30:00,
2013-09-06 15:35:00,80.0,69.3,29.91,SSW,197,7.0,12.0,70,0.00,CLR,,0.00,WeatherDisplay:10.37,2013-09-06 13:35:00,
2013-09-06 15:40:00,79.7,69.0,29.91,SSW,192,5.0,12.0,70,0.00,CLR,,0.00,WeatherDisplay:10.37,2013-09-06 13:40:00,
2013-09-06 15:45:00,79.8,69.6,29.91,South,186,6.0,12.0,71,0.00,CLR,,0.00,WeatherDisplay:10.37,2013-09-06 13:45:00,
2013-09-06 15:50:00,79.9,69.7,29.91,South,188,5.0,12.0,71,0.00,CLR,,0.00,WeatherDisplay:10.37,2013-09-06 13:50:00,
2013-09-06 15:55:00,80.1,69.8,29.91,SSW,194,3.0,12.0,71,0.00,CLR,,0.00,WeatherDisplay:10.37,2013-09-06 13:55:00,
2013-09-06 16:00:00,80.0,69.4,29.91,South,191,6.0,13.0,70,0.00,CLR,,0.00,WeatherDisplay:10.37,2013-09-06 14:00:00,
2013-09-06 16:05:00,79.7,69.4,29.91,SSW,195,7.0,13.0,71,0.00,CLR,,0.00,WeatherDisplay:10.37,2013-09-06 14:05:00,
2013-09-06 16:10:00,79.4,69.6,29.91,SSW,195,7.0,13.0,72,0.00,CLR,,0.00,WeatherDisplay:10.37,2013-09-06 14:10:00,
2013-09-06 16:15:00,79.7,70.3,29.90,SSW,194,5.0,12.0,73,0.00,CLR,,0.00,WeatherDisplay:10.37,2013-09-06 14:15:00,
2013-09-06 16:20:00,79.8,70.0,29.90,SSW,203,6.0,12.0,72,0.00,CLR,,0.00,WeatherDisplay:10.37,2013-09-06 14:20:00,
2013-09-06 16:25:00,79.7,69.9,29.90,SSW,202,3.0,12.0,72,0.00,CLR,,0.00,WeatherDisplay:10.37,2013-09-06 14:25:00,
2013-09-06 16:30:00,79.8,69.6,29.90,SSW,196,6.0,12.0,71,0.00,CLR,,0.00,WeatherDisplay:10.37,2013-09-06 14:30:00,
2013-09-06 16:35:00,79.8,69.6,29.90,SSW,204,8.0,12.0,71,0.00,CLR,,0.00,WeatherDisplay:10.37,2013-09-06 14:35:00,
2013-09-06 16:40:00,79.8,70.0,29.90,SSW,206,7.0,12.0,72,0.00,CLR,,0.00,WeatherDisplay:10.37,2013-09-06 14:40:00,
2013-09-06 16:45:00,79.8,70.0,29.90,SSW,197,7.0,12.0,72,0.00,CLR,,0.00,WeatherDisplay:10.37,2013-09-06 14:45:00,
2013-09-06 16:50:00,79.9,70.1,29.90,SSW,201,5.0,12.0,72,0.00,CLR,,0.00,WeatherDisplay:10.37,2013-09-06 14:50:00,
2013-09-06 16:55:00,80.2,70.3,29.90,South,188,2.0,9.0,72,0.00,CLR,,0.00,WeatherDisplay:10.37,2013-09-06 14:55:00,
2013-09-06 17:00:00,80.4,70.1,29.90,South,190,5.0,10.0,71,0.00,CLR,,0.00,WeatherDisplay:10.37,2013-09-06 15:00:00,
2013-09-06 17:05:00,80.3,69.6,29.90,SSW,200,6.0,12.0,70,0.00,CLR,,0.00,WeatherDisplay:10.37,2013-09-06 15:05:00,
2013-09-06 17:10:00,80.1,69.4,29.90,SSW,200,6.0,14.0,70,0.00,CLR,,0.00,WeatherDisplay:10.37,2013-09-06 15:10:00,
2013-09-06 17:15:00,80.0,69.7,29.90,SSW,193,5.0,12.0,71,0.00,CLR,,0.00,WeatherDisplay:10.37,2013-09-06 15:15:00,
2013-09-06 17:20:00,79.9,69.2,29.90,SSW,198,6.0,10.0,70,0.00,CLR,,0.00,WeatherDisplay:10.37,2013-09-06 15:20:00,
2013-09-06 17:25:00,80.2,69.9,29.90,SSW,201,3.0,9.0,71,0.00,CLR,,0.00,WeatherDisplay:10.37,2013-09-06 15:25:00,
2013-09-06 17:30:00,80.2,69.5,29.90,SSW,207,5.0,10.0,70,0.00,CLR,,0.00,WeatherDisplay:10.37,2013-09-06 15:30:00,
2013-09-06 17:35:00,80.2,69.5,29.90,SSW,198,7.0,12.0,70,0.00,CLR,,0.00,WeatherDisplay:10.37,2013-09-06 15:35:00,
2013-09-06 17:40:00,80.0,70.2,29.90,SSW,194,5.0,12.0,72,0.00,CLR,,0.00,WeatherDisplay:10.37,2013-09-06 15:40:00,
2013-09-06 17:45:00,80.0,69.7,29.90,SSW,196,5.0,10.0,71,0.00,CLR,,0.00,WeatherDisplay:10.37,2013-09-06 15:45:00,
2013-09-06 17:50:00,80.1,70.3,29.90,SSW,194,6.0,8.0,72,0.00,CLR,,0.00,WeatherDisplay:10.37,2013-09-06 15:50:00,
2013-09-06 17:55:00,79.9,69.6,29.90,South,188,6.0,10.0,71,0.00,CLR,,0.00,WeatherDisplay:10.37,2013-09-06 15:55:00,
2013-09-06 18:00:00,79.7,69.8,29.90,SSW,193,3.0,9.0,72,0.00,CLR,,0.00,WeatherDisplay:10.37,2013-09-06 16:00:00,
2013-09-06 18:05:00,79.7,70.3,29.90,South,190,2.0,15.0,73,0.00,CLR,,0.00,WeatherDisplay:10.37,2013-09-06 16:05:00,
2013-09-06 18:10:00,79.8,70.0,29.90,South,185,3.0,10.0,72,0.00,CLR,,0.00,WeatherDisplay:10.37,2013-09-06 16:10:00,
2013-09-06 18:15:00,79.8,69.6,29.91,South,188,5.0,10.0,71,0.00,CLR,,0.00,WeatherDisplay:10.37,2013-09-06 16:15:00,
2013-09-06 18:20:00,79.8,69.6,29.91,South,185,5.0,9.0,71,0.00,CLR,,0.00,WeatherDisplay:10.37,2013-09-06 16:20:00,
2013-09-06 18:25:00,79.7,69.5,29.91,SSW,192,3.0,9.0,71,0.00,CLR,,0.00,WeatherDisplay:10.37,2013-09-06 16:25:00,
2013-09-06 18:30:00,79.8,69.6,29.91,SSW,193,3.0,12.0,71,0.00,CLR,,0.00,WeatherDisplay:10.37,2013-09-06 16:30:00,
2013-09-06 18:35:00,79.8,70.0,29.91,South,178,3.0,10.0,72,0.00,CLR,,0.00,WeatherDisplay:10.37,2013-09-06 16:35:00,
2013-09-06 18:40:00,79.6,70.2,29.91,South,173,5.0,10.0,73,0.00,CLR,,0.00,WeatherDisplay:10.37,2013-09-06 16:40:00,
2013-09-06 18:45:00,79.5,70.1,29.91,South,172,2.0,11.0,73,0.00,CLR,,0.00,WeatherDisplay:10.37,2013-09-06 16:45:00,
2013-09-06 18:50:00,79.3,69.5,29.91,South,176,5.0,9.0,72,0.00,CLR,,0.00,WeatherDisplay:10.37,2013-09-06 16:50:00,
2013-09-06 18:55:00,79.1,69.3,29.91,South,169,3.0,9.0,72,0.00,CLR,,0.00,WeatherDisplay:10.37,2013-09-06 16:55:00,
2013-09-06 19:00:00,79.1,69.3,29.91,South,174,2.0,8.0,72,0.00,CLR,,0.00,WeatherDisplay:10.37,2013-09-06 17:00:00,
2013-09-06 19:05:00,79.2,69.4,29.91,South,170,2.0,8.0,72,0.00,CLR,,0.00,WeatherDisplay:10.37,2013-09-06 17:05:00,
2013-09-06 19:10:00,79.0,69.2,29.91,South,180,2.0,9.0,72,0.00,CLR,,0.00,WeatherDisplay:10.37,2013-09-06 17:10:00,
2013-09-06 19:15:00,78.8,69.4,29.91,South,179,2.0,9.0,73,0.00,CLR,,0.00,WeatherDisplay:10.37,2013-09-06 17:15:00,
2013-09-06 19:20:00,78.7,69.3,29.91,South,170,0.0,9.0,73,0.00,CLR,,0.00,WeatherDisplay:10.37,2013-09-06 17:20:00,
2013-09-06 19:25:00,78.6,68.8,29.91,SSE,165,5.0,10.0,72,0.00,CLR,,0.00,WeatherDisplay:10.37,2013-09-06 17:25:00,
2013-09-06 19:30:00,78.5,68.7,29.91,South,172,2.0,7.0,72,0.00,CLR,,0.00,WeatherDisplay:10.37,2013-09-06 17:30:00,
2013-09-06 19:35:00,78.4,68.6,29.92,South,170,1.0,6.0,72,0.00,CLR,,0.00,WeatherDisplay:10.37,2013-09-06 17:35:00,
2013-09-06 19:40:00,78.3,69.0,29.92,South,172,2.0,6.0,73,0.00,CLR,,0.00,WeatherDisplay:10.37,2013-09-06 17:40:00,
2013-09-06 19:45:00,78.1,68.3,29.92,South,172,2.0,8.0,72,0.00,CLR,,0.00,WeatherDisplay:10.37,2013-09-06 17:45:00,
2013-09-06 19:50:00,77.9,68.5,29.92,South,173,2.0,8.0,73,0.00,CLR,,0.00,WeatherDisplay:10.37,2013-09-06 17:50:00,
2013-09-06 19:55:00,77.8,68.8,29.92,South,173,1.0,6.0,74,0.00,CLR,,0.00,WeatherDisplay:10.37,2013-09-06 17:55:00,
2013-09-06 20:00:00,77.6,68.3,29.92,South,173,1.0,6.0,73,0.00,CLR,,0.00,WeatherDisplay:10.37,2013-09-06 18:00:00,
2013-09-06 20:05:00,77.4,68.1,29.92,South,171,2.0,4.0,73,0.00,CLR,,0.00,WeatherDisplay:10.37,2013-09-06 18:05:00,
2013-09-06 20:10:00,77.4,68.4,29.92,SSE,168,1.0,5.0,74,0.00,CLR,,0.00,WeatherDisplay:10.37,2013-09-06 18:10:00,
2013-09-06 20:15:00,77.3,68.8,29.92,South,172,2.0,6.0,75,0.00,CLR,,0.00,WeatherDisplay:10.37,2013-09-06 18:15:00,
2013-09-06 20:20:00,77.2,68.7,29.92,SSE,165,2.0,5.0,75,0.00,CLR,,0.00,WeatherDisplay:10.37,2013-09-06 18:20:00,
2013-09-06 20:25:00,77.0,68.5,29.92,SSE,153,0.0,5.0,75,0.00,CLR,,0.00,WeatherDisplay:10.37,2013-09-06 18:25:00,
2013-09-06 20:30:00,77.0,68.5,29.92,SSE,152,1.0,7.0,75,0.00,CLR,,0.00,WeatherDisplay:10.37,2013-09-06 18:30:00,
2013-09-06 20:35:00,77.0,68.9,29.92,SSE,153,0.0,4.0,76,0.00,CLR,,0.00,WeatherDisplay:10.37,2013-09-06 18:35:00,
2013-09-06 20:40:00,77.0,68.9,29.93,SSE,155,1.0,5.0,76,0.00,CLR,,0.00,WeatherDisplay:10.37,2013-09-06 18:40:00,
2013-09-06 20:45:00,76.9,68.8,29.93,SSE,155,1.0,4.0,76,0.00,,,0.00,WeatherDisplay:10.37,2013-09-06 18:45:00,
2013-09-06 20:50:00,76.9,68.8,29.93,SSE,155,1.0,6.0,76,0.00,,,0.00,WeatherDisplay:10.37,2013-09-06 18:50:00,
2013-09-06 20:55:00,76.9,68.8,29.93,SSE,156,0.0,4.0,76,0.00,,,0.00,WeatherDisplay:10.37,2013-09-06 18:55:00,
2013-09-06 21:00:00,76.9,69.1,29.93,SSE,156,0.0,0.0,77,0.00,,,0.00,WeatherDisplay:10.37,2013-09-06 19:00:00,
2013-09-06 21:06:00,76.8,69.0,29.93,SSE,156,0.0,0.0,77,0.00,,,0.00,Wunderground v.1.15,2013-09-06 19:06:00,
2013-09-06 21:11:00,76.8,68.7,29.94,SSE,156,0.0,0.0,76,0.00,,,0.00,Wunderground v.1.15,2013-09-06 19:11:00,
2013-09-06 21:16:00,76.8,69.0,29.94,SSE,156,0.0,0.0,77,0.00,,,0.00,Wunderground v.1.15,2013-09-06 19:16:00,
2013-09-06 21:25:00,76.7,68.9,29.94,SSE,156,0.0,0.0,77,0.00,,,0.00,WeatherDisplay:10.37,2013-09-06 19:25:00,
2013-09-06 21:32:00,76.7,68.9,29.94,SSE,156,0.0,0.0,77,0.00,,,0.00,WeatherDisplay:10.37,2013-09-06 19:32:00,
2013-09-06 21:40:00,76.5,68.7,29.94,SSE,156,0.0,0.0,77,0.00,,,0.00,WeatherDisplay:10.37,2013-09-06 19:40:00,
2013-09-06 21:45:00,76.5,68.7,29.94,SSE,156,0.0,0.0,77,0.00,,,0.00,WeatherDisplay:10.37,2013-09-06 19:45:00,
2013-09-06 21:50:00,76.4,68.7,29.94,SSE,156,0.0,0.0,77,0.00,,,0.00,WeatherDisplay:10.37,2013-09-06 19:50:00,
2013-09-06 21:55:00,76.3,68.6,29.94,SSE,156,0.0,1.0,77,0.00,,,0.00,WeatherDisplay:10.37,2013-09-06 19:55:00,
2013-09-06 22:00:00,76.3,68.6,29.94,SSE,156,0.0,0.0,77,0.00,,,0.00,WeatherDisplay:10.37,2013-09-06 20:00:00,
2013-09-06 22:05:00,76.2,68.5,29.94,SSE,156,0.0,0.0,77,0.00,,,0.00,WeatherDisplay:10.37,2013-09-06 20:05:00,
2013-09-06 22:10:00,76.1,68.4,29.94,SSE,156,0.0,0.0,77,0.00,,,0.00,WeatherDisplay:10.37,2013-09-06 20:10:00,
2013-09-06 22:15:00,76.1,68.4,29.94,SSE,156,0.0,1.0,77,0.00,,,0.00,WeatherDisplay:10.37,2013-09-06 20:15:00,
2013-09-06 22:20:00,76.1,68.4,29.94,SSE,156,0.0,0.0,77,0.00,,,0.00,WeatherDisplay:10.37,2013-09-06 20:20:00,
2013-09-06 22:25:00,76.1,68.4,29.94,SSE,156,0.0,0.0,77,0.00,,,0.00,WeatherDisplay:10.37,2013-09-06 20:25:00,
2013-09-06 22:30:00,76.2,68.4,29.94,SSE,156,0.0,0.0,77,0.00,,,0.00,WeatherDisplay:10.37,2013-09-06 20:30:00,
2013-09-06 22:35:00,76.1,68.4,29.95,SSE,156,0.0,0.0,77,0.00,,,0.00,WeatherDisplay:10.37,2013-09-06 20:35:00,
2013-09-06 22:40:00,76.1,68.3,29.95,SSE,156,0.0,0.0,77,0.00,,,0.00,WeatherDisplay:10.37,2013-09-06 20:40:00,
2013-09-06 22:45:00,76.0,68.2,29.95,SSE,156,0.0,0.0,77,0.00,,,0.00,WeatherDisplay:10.37,2013-09-06 20:45:00,
2013-09-06 22:50:00,75.9,68.2,29.95,SSE,156,0.0,0.0,77,0.00,,,0.00,WeatherDisplay:10.37,2013-09-06 20:50:00,
2013-09-06 23:00:00,75.8,68.1,29.95,SSE,156,0.0,0.0,77,0.00,,,0.00,WeatherDisplay:10.37,2013-09-06 21:00:00,
2013-09-06 23:05:00,75.8,68.4,29.96,SSE,156,0.0,0.0,78,0.00,,,0.00,WeatherDisplay:10.37,2013-09-06 21:05:00,
2013-09-06 23:10:00,75.7,68.4,29.96,SSE,156,0.0,0.0,78,0.00,,,0.00,WeatherDisplay:10.37,2013-09-06 21:10:00,
2013-09-06 23:15:00,75.7,68.4,29.96,SSE,156,0.0,0.0,78,0.00,,,0.00,WeatherDisplay:10.37,2013-09-06 21:15:00,
2013-09-06 23:20:00,75.5,68.2,29.96,SSE,156,0.0,0.0,78,0.00,,,0.00,WeatherDisplay:10.37,2013-09-06 21:20:00,
2013-09-06 23:25:00,75.3,68.0,29.97,SSE,156,0.0,0.0,78,0.00,,,0.00,WeatherDisplay:10.37,2013-09-06 21:25:00,
2013-09-06 23:30:00,74.9,67.6,29.96,SSE,156,0.0,0.0,78,0.00,,,0.00,WeatherDisplay:10.37,2013-09-06 21:30:00,
2013-09-06 23:35:00,74.6,67.3,29.97,SSE,156,0.0,0.0,78,0.00,,,0.00,WeatherDisplay:10.37,2013-09-06 21:35:00,
2013-09-06 23:41:00,74.2,66.9,29.97,SSE,156,0.0,0.0,78,0.00,,,0.00,Wunderground v.1.15,2013-09-06 21:41:00,
2013-09-06 23:50:00,73.7,67.1,29.97,NE,41,0.0,2.0,80,0.00,,,0.00,WeatherDisplay:10.37,2013-09-06 21:50:00,
2013-09-06 23:55:00,73.6,67.4,29.97,NNE,32,0.0,0.0,81,0.00,,,0.00,WeatherDisplay:10.37,2013-09-06 21:55:00,